Prestwick, United Kingdom

1:26 AM BST on April 24, 2017 (GMT +0100)
Prestwick

Weather History for EGPK - June, 2013

Change the Weather History Date:

Monday, June 24, 2013

  Actual Average Record
Temperature  
Mean Temperature 54 °F -  
Max Temperature 59 °F 62 °F 69 °F (2001)
Min Temperature 50 °F 50 °F 44 °F (1999)
Degree Days  
Heating Degree Days 10    
Growing Degree Days 4 (Base 50)    
Moisture  
Dew Point 45 °F    
Average Humidity 71    
Maximum Humidity 82    
Minimum Humidity 59    
Precipitation  
Precipitation 0.00 in - - ()
Sea Level Pressure  
Sea Level Pressure 30.16 in    
Wind  
Wind Speed 14 mph ()    
Max Wind Speed 20 mph    
Max Gust Speed -    
Visibility 6.2 miles    
Events      
Averages and records for this station are not official NWS values.
T = Trace of Precipitation, MM = Missing Value Source: Averaged Metar Reports

Daily Weather History Graph

Daily Weather History Graph

Search for Another Location

Airport or City:

Trip Planner

Search our weather history database for the weather conditions in past years. The results will help you decide how hot, cold, wet, or windy it might be!

Date:

Astronomy

Jun. 24, 2013 Rise Set
Actual Time 4:36 AM BST 10:05 PM BST
Civil Twilight 3:35 AM BST 11:05 PM BST
Nautical Twilight 1:53 AM BST 12:48 AM BST
Astronomical Twilight Sun does not set Sun does not set
Moon 10:29 PM BST 6:06 AM BST
Length of Visible Light 19h 29m
Length of Day
17h 29m
Full, 98% of the Moon is Illuminated
Jun 24
Full
Jun 30
Last Quarter
Jul 8
New
Jul 16
First Quarter
Jul 22
Full

Hourly Weather History & Observations

Time (BST) Temp. Dew Point Humidity Pressure Visibility Wind Dir Wind Speed Gust Speed Precip Events Conditions
12:20 AM 51.8 °F 46.4 °F 82% 30.01 in 6.2 mi WNW 19.6 mph - N/A   Mostly Cloudy
12:50 AM 50.0 °F 44.6 °F 82% 30.01 in 6.2 mi WNW 19.6 mph - N/A   Partly Cloudy
1:50 AM 50.0 °F 44.6 °F 82% 30.04 in 6.2 mi WNW 15.0 mph - N/A   Partly Cloudy
2:50 AM 50.0 °F 44.6 °F 82% 30.04 in 6.2 mi NW 13.8 mph - N/A   Partly Cloudy
3:50 AM 50.0 °F 44.6 °F 82% 30.06 in 6.2 mi West 9.2 mph - N/A   Mostly Cloudy
4:50 AM 50.0 °F 44.6 °F 82% 30.06 in 6.2 mi WNW 12.7 mph - N/A   Mostly Cloudy
5:50 AM 50.0 °F 44.6 °F 82% 30.06 in 6.2 mi NW 15.0 mph - N/A   Scattered Clouds
6:50 AM 50.0 °F 44.6 °F 82% 30.09 in 6.2 mi WNW 13.8 mph - N/A   Partly Cloudy
7:20 AM 51.8 °F 46.4 °F 82% 30.09 in 6.2 mi WNW 16.1 mph - N/A   Partly Cloudy
7:50 AM 53.6 °F 44.6 °F 72% 30.12 in 6.2 mi WNW 16.1 mph - N/A   Partly Cloudy
8:20 AM 53.6 °F 44.6 °F 72% 30.12 in 6.2 mi WNW 17.3 mph - N/A   Partly Cloudy
8:50 AM 51.8 °F 44.6 °F 76% 30.12 in 6.2 mi WNW 15.0 mph - N/A   Partly Cloudy
9:20 AM 53.6 °F 46.4 °F 77% 30.12 in 6.2 mi West 15.0 mph - N/A   Scattered Clouds
9:50 AM 53.6 °F 46.4 °F 77% 30.15 in 6.2 mi WNW 15.0 mph - N/A   Scattered Clouds
10:20 AM 55.4 °F 46.4 °F 72% 30.15 in 6.2 mi West 16.1 mph - N/A   Scattered Clouds
10:50 AM 55.4 °F 46.4 °F 72% 30.15 in 6.2 mi WNW 13.8 mph - N/A   Scattered Clouds
11:20 AM 57.2 °F 46.4 °F 67% 30.15 in 6.2 mi West 16.1 mph - N/A   Scattered Clouds
11:50 AM 59.0 °F 46.4 °F 63% 30.15 in 6.2 mi West 16.1 mph - N/A   Scattered Clouds
12:20 PM 57.2 °F 44.6 °F 63% 30.15 in 6.2 mi West 16.1 mph - N/A   Scattered Clouds
12:50 PM 59.0 °F 46.4 °F 63% 30.15 in 6.2 mi West 17.3 mph - N/A   Scattered Clouds
1:20 PM 59.0 °F 46.4 °F 63% 30.18 in 6.2 mi WNW 16.1 mph - N/A   Scattered Clouds
1:50 PM 59.0 °F 46.4 °F 63% 30.18 in 6.2 mi West 17.3 mph - N/A   Scattered Clouds
2:20 PM 59.0 °F 46.4 °F 63% 30.18 in 6.2 mi WNW 18.4 mph - N/A   Scattered Clouds
2:50 PM 57.2 °F 46.4 °F 67% 30.18 in 6.2 mi WNW 15.0 mph - N/A   Scattered Clouds
3:20 PM 57.2 °F 44.6 °F 63% 30.18 in 6.2 mi WNW 16.1 mph - N/A   Scattered Clouds
3:50 PM 57.2 °F 46.4 °F 67% 30.21 in 6.2 mi WNW 16.1 mph - N/A   Scattered Clouds
4:20 PM 57.2 °F 44.6 °F 63% 30.21 in 6.2 mi WNW 13.8 mph - N/A   Scattered Clouds
4:50 PM 59.0 °F 44.6 °F 59% 30.21 in 6.2 mi WNW 16.1 mph - N/A   Partly Cloudy
5:20 PM 59.0 °F 46.4 °F 63% 30.21 in 6.2 mi WNW 17.3 mph - N/A   Partly Cloudy
5:50 PM 59.0 °F 44.6 °F 59% 30.21 in 6.2 mi WNW 16.1 mph - N/A   Partly Cloudy
6:20 PM 59.0 °F 44.6 °F 59% 30.21 in 6.2 mi WNW 16.1 mph - N/A   Partly Cloudy
6:50 PM 59.0 °F 44.6 °F 59% 30.21 in 6.2 mi WNW 16.1 mph - N/A   Partly Cloudy
7:20 PM 57.2 °F 44.6 °F 63% 30.21 in 6.2 mi WNW 15.0 mph - N/A   Partly Cloudy
7:50 PM 57.2 °F 44.6 °F 63% 30.24 in 6.2 mi WNW 16.1 mph - N/A   Partly Cloudy
8:20 PM 57.2 °F 44.6 °F 63% 30.24 in 6.2 mi WNW 15.0 mph - N/A   Partly Cloudy
8:50 PM 55.4 °F 44.6 °F 67% 30.24 in 6.2 mi WNW 13.8 mph - N/A   Partly Cloudy
9:20 PM 53.6 °F 44.6 °F 72% 30.24 in 6.2 mi WNW 12.7 mph - N/A   Partly Cloudy
9:50 PM 51.8 °F 44.6 °F 76% 30.27 in 6.2 mi WNW 11.5 mph - N/A   Partly Cloudy
10:20 PM 51.8 °F 44.6 °F 76% 30.27 in 6.2 mi WNW 11.5 mph - N/A   Partly Cloudy
10:50 PM 51.8 °F 44.6 °F 76% 30.27 in 6.2 mi WNW 9.2 mph - N/A   Partly Cloudy
11:20 PM 50.0 °F 44.6 °F 82% 30.27 in - WNW 5.8 mph - N/A   Clear
11:50 PM 50.0 °F 44.6 °F 82% 30.27 in - Calm Calm - N/A   Clear